Date String (YYYY-MM-DD hh:mm:ss) UTC,Instrument flags,Ambient pressure (hPa),Sample flow (lpm),Bypass flow (lpm),Sample temperature (°C),Ambient temperature (°C),ASC tube jacket temperature (°C),LED temperature (°C),Box temperature (°C),Sample RH (%),Span deviation,Mass concentration (μg/m³),Mass concentration (μg/m³),Mass concentration (μg/m³)
DateTimeUTC,F1_M11,P_M11,Q1_M11,Q2_M11,T1_M11,T2_M11,T3_M11,T4_M11,T5_M11,U1_M11,ZSPAN_M11,X0_M11,X2_M11,X1_M11
2022-12-28 20:00:00,,0808.6,5.02,0.00,24.8,23.5,00.0,33.7,26.7,16.4,0000.0,0009.40,0005.66,0005.23
2022-12-28 20:01:00,,0808.6,5.00,0.00,24.8,23.6,00.0,33.7,26.7,16.4,0000.0,0009.50,0005.61,0005.20
2022-12-28 20:02:00,,0808.6,4.98,0.00,24.8,23.6,00.0,33.7,26.7,16.5,0000.0,0009.38,0005.51,0005.16
2022-12-28 20:03:00,,0808.6,4.99,0.00,24.8,23.6,00.0,33.7,26.7,16.5,0000.0,0008.65,0005.43,0005.10
2022-12-28 20:04:00,,0808.6,4.99,0.00,24.8,23.5,00.0,33.7,26.7,16.4,0000.0,0008.45,0005.40,0005.08
2022-12-28 20:05:00,,0808.7,4.99,0.00,24.8,23.5,00.0,33.7,26.7,16.5,0000.0,0008.34,0005.36,0005.08
2022-12-28 20:06:00,,0808.7,5.01,0.00,24.8,23.4,00.0,33.7,26.7,16.6,0000.0,0008.21,0005.36,0005.10
2022-12-28 20:07:00,,0808.8,5.00,0.00,24.8,23.5,00.0,33.7,26.7,16.6,0000.0,0008.31,0005.40,0005.12
2022-12-28 20:08:00,,0808.8,5.01,0.00,24.8,23.5,00.0,33.7,26.7,16.5,0000.0,0008.43,0005.42,0005.12
2022-12-28 20:09:00,,0808.8,4.98,0.00,24.8,23.5,00.0,33.7,26.7,16.6,0000.0,0008.44,0005.43,0005.13
2022-12-28 20:10:00,,0808.8,4.98,0.00,24.8,23.6,00.0,33.7,26.7,16.5,0000.0,0008.54,0005.49,0005.16
2022-12-28 20:11:00,,0808.8,4.99,0.00,24.8,23.6,00.0,33.7,26.7,16.5,0000.0,0008.54,0005.49,0005.17
2022-12-28 20:12:00,,0808.8,4.99,0.00,24.8,23.5,00.0,33.7,26.7,16.6,0000.0,0008.46,0005.53,0005.20
2022-12-28 20:13:00,,0808.9,5.00,0.00,24.8,23.5,00.0,33.7,26.7,16.5,0000.0,0008.42,0005.56,0005.22
2022-12-28 20:14:00,,0808.9,5.01,0.00,24.9,23.5,00.0,33.7,26.8,16.4,0000.0,0008.53,0005.61,0005.25
2022-12-28 20:15:00,,0808.9,5.01,0.00,24.9,23.5,00.0,33.7,26.7,16.5,0000.0,0008.62,0005.65,0005.29
2022-12-28 20:16:00,,0808.9,5.00,0.00,24.9,23.5,00.0,33.7,26.7,16.6,0000.0,0008.75,0005.70,0005.31
2022-12-28 20:17:00,,0809.0,5.01,0.00,24.9,23.5,00.0,33.7,26.7,16.7,0000.0,0008.89,0005.77,0005.34
2022-12-28 20:18:00,,0808.9,5.00,0.00,24.9,23.5,00.0,33.7,26.7,16.8,0000.0,0008.83,0005.79,0005.37
2022-12-28 20:19:00,,0808.9,5.00,0.00,24.9,23.4,00.0,33.7,26.7,16.8,0000.0,0008.83,0005.81,0005.40
2022-12-28 20:20:00,,0808.9,5.00,0.00,24.8,23.4,00.0,33.7,26.6,16.7,0000.0,0008.92,0005.85,0005.43
2022-12-28 20:21:00,,0808.9,5.00,0.00,24.8,23.4,00.0,33.7,26.6,16.7,0000.0,0009.10,0005.90,0005.46
2022-12-28 20:22:00,,0808.9,5.00,0.00,24.8,23.4,00.0,33.7,26.7,16.6,0000.0,0009.29,0005.97,0005.49
2022-12-28 20:23:00,,0808.8,5.00,0.00,24.8,23.4,00.0,33.7,26.7,16.7,0000.0,0009.74,0005.98,0005.52
2022-12-28 20:24:00,,0808.8,5.01,0.00,24.8,23.4,00.0,33.7,26.7,16.8,0000.0,0009.81,0006.02,0005.56
2022-12-28 20:25:00,,0808.8,5.00,0.00,24.8,23.4,00.0,33.7,26.6,16.8,0000.0,0009.84,0006.07,0005.60
2022-12-28 20:26:00,,0808.8,5.00,0.00,24.8,23.3,00.0,33.7,26.6,16.9,0000.0,0009.82,0006.09,0005.62
2022-12-28 20:27:00,,0808.8,5.00,0.00,24.8,23.3,00.0,33.7,26.6,16.7,0000.0,0009.76,0006.10,0005.65
2022-12-28 20:28:00,,0808.7,5.01,0.00,24.8,23.3,00.0,33.7,26.6,16.8,0000.0,0009.91,0006.10,0005.67
2022-12-28 20:29:00,,0808.7,5.01,0.00,24.8,23.4,00.0,33.7,26.6,16.8,0000.0,0010.40,0006.10,0005.67
2022-12-28 20:30:00,,0808.7,5.00,0.00,24.8,23.3,00.0,33.7,26.6,16.8,0000.0,0010.33,0006.09,0005.68
2022-12-28 20:31:00,,0808.7,5.00,0.00,24.8,23.3,00.0,33.7,26.6,16.9,0000.0,0010.35,0006.12,0005.68
2022-12-28 20:32:00,,0808.7,5.01,0.00,24.8,23.3,00.0,33.7,26.6,16.8,0000.0,0010.33,0006.10,0005.67
2022-12-28 20:33:00,,0808.7,5.00,0.00,24.8,23.4,00.0,33.7,26.7,16.9,0000.0,0010.84,0006.05,0005.66
2022-12-28 20:34:00,,0808.7,5.00,0.00,24.8,23.4,00.0,33.7,26.7,16.9,0000.0,0010.63,0006.08,0005.66
2022-12-28 20:35:00,,0808.7,5.00,0.00,24.8,23.5,00.0,33.7,26.7,16.9,0000.0,0010.61,0006.06,0005.65
2022-12-28 20:36:00,,0808.7,4.98,0.00,24.8,23.6,00.0,33.7,26.7,16.9,0000.0,0010.51,0006.01,0005.62
2022-12-28 20:37:00,,0808.8,5.01,0.00,24.8,23.6,00.0,33.7,26.7,16.7,0000.0,0010.53,0005.99,0005.59
2022-12-28 20:38:00,,0808.8,4.98,0.00,24.8,23.5,00.0,33.7,26.7,16.7,0000.0,0010.40,0005.93,0005.54
2022-12-28 20:39:00,,0808.9,5.01,0.00,24.8,23.4,00.0,33.7,26.7,16.7,0000.0,0010.35,0005.88,0005.48
2022-12-28 20:40:00,,0808.9,5.00,0.00,24.8,23.5,00.0,33.7,26.7,16.8,0000.0,0009.75,0005.82,0005.42
2022-12-28 20:41:00,,0808.9,5.01,0.00,24.8,23.4,00.0,33.7,26.7,16.8,0000.0,0010.38,0005.74,0005.35
2022-12-28 20:42:00,,0808.9,5.01,0.00,24.8,23.4,00.0,33.7,26.6,16.7,0000.0,0010.47,0005.63,0005.27
2022-12-28 20:43:00,,0808.9,5.01,0.00,24.8,23.3,00.0,33.7,26.6,16.7,0000.0,0010.55,0005.55,0005.19
2022-12-28 20:44:00,,0808.8,5.00,0.00,24.8,23.2,00.0,33.7,26.5,16.6,0000.0,0010.33,0005.48,0005.11
2022-12-28 20:45:00,,0808.8,5.00,0.00,24.8,23.2,00.0,33.7,26.5,16.6,0000.0,0010.11,0005.37,0005.02
2022-12-28 20:46:00,,0808.8,5.00,0.00,24.7,23.2,00.0,33.7,26.5,16.6,0000.0,0009.80,0005.24,0004.92
2022-12-28 20:47:00,,0808.8,5.00,0.00,24.7,23.2,00.0,33.7,26.5,16.7,0000.0,0009.77,0005.17,0004.84
2022-12-28 20:48:00,,0808.8,5.00,0.00,24.7,23.2,00.0,33.7,26.5,16.6,0000.0,0009.73,0005.10,0004.77
2022-12-28 20:49:00,,0808.9,4.99,0.00,24.7,23.2,00.0,33.7,26.5,16.5,0000.0,0009.69,0005.04,0004.73
2022-12-28 20:50:00,,0808.9,4.99,0.00,24.7,23.2,00.0,33.7,26.5,16.5,0000.0,0009.66,0005.01,0004.69
2022-12-28 20:51:00,,0808.9,5.00,0.00,24.7,23.2,00.0,33.7,26.5,16.5,0000.0,0009.58,0004.99,0004.65
2022-12-28 20:52:00,,0808.9,5.00,0.00,24.7,23.2,00.0,33.7,26.5,16.5,0000.0,0008.78,0004.96,0004.63
2022-12-28 20:53:00,,0808.9,5.00,0.00,24.7,23.3,00.0,33.6,26.6,16.4,0000.0,0008.47,0004.93,0004.60
2022-12-28 20:54:00,,0808.9,4.98,0.00,24.7,23.3,00.0,33.6,26.6,16.5,0000.0,0008.25,0004.90,0004.59
2022-12-28 20:55:00,,0808.9,5.00,0.00,24.7,23.3,00.0,33.6,26.6,16.6,0000.0,0007.84,0004.88,0004.57
2022-12-28 20:56:00,,0808.9,5.00,0.00,24.7,23.3,00.0,33.6,26.6,16.6,0000.0,0007.85,0004.90,0004.57
2022-12-28 20:57:00,,0808.9,5.00,0.00,24.7,23.3,00.0,33.6,26.6,16.6,0000.0,0008.05,0004.92,0004.58
2022-12-28 20:58:00,,0808.9,4.99,0.00,24.7,23.4,00.0,33.6,26.6,16.6,0000.0,0008.26,0004.95,0004.59
2022-12-28 20:59:00,,0808.9,5.01,0.00,24.8,23.4,00.0,33.6,26.6,16.7,0000.0,0008.20,0004.95,0004.60
